Station FPST2 - 8772471 - Freeport SPIP, TX Image indicating link to RSS feed of recent meteorological observations for station FPST2


Conditions at FPST2 as of
(9:48 pm CDT on 04/18/2024)
0248 GMT on 04/19/2024:
     

Click on the graph icon in the table below to see a time series plot of the last five days of that observation.

5-day plot - Wind Direction Wind Direction (WDIR): SE ( 140 deg true )
5-day plot - Wind Speed Wind Speed (WSPD): 12.0 kts
5-day plot - Wind Gust Wind Gust (GST): 14.0 kts
5-day plot - Atmospheric Pressure Atmospheric Pressure (PRES):29.95 in
5-day plot - Air Temperature Air Temperature (ATMP): 74.8 °F
5-day plot - Water Temperature Water Temperature (WTMP): 75.2 °F
5-day plot - Wind Speed at 10 Meters Wind Speed at 10 meters (WSPD10M): 11.7 kts
5-day plot - Wind Speed at 20 Meters Wind Speed at 20 meters (WSPD20M): 13.6 kts
5-day plot -  Wind Speed, Wind Gust and Atmospheric Pressure Combined plot of Wind Speed, Gust, and Air Pressure
NOS Water Level Observation Network Water Level
Previous observations
TIME
(CDT)
5-day plot - Wind Direction
WDIR
 
5-day plot - Wind Speed
WSPD
kts
5-day plot - Wind Gust
GST
kts
5-day plot - Wave Height
WVHT
ft
5-day plot - Dominant Wave Period
DPD
sec
5-day plot - Average Wave Period
APD
sec
5-day plot - Mean Wave Direction
MWD
 
5-day plot - Atmospheric Pressure
PRES
in
5-day plot - Pressure Tendency
PTDY
in
5-day plot - Air Temperature
ATMP
°F
5-day plot - Water Temperature
WTMP
°F
5-day plot - Dew Point
DEWP
°F
5-day plot - Salinity
SAL
psu
5-day plot - Visibility
VIS
nmi
5-day plot - Tide (above MLLW)
TIDE
ft
2024-04-18 09:42 pmSSE 12.0 15.0----29.95- 74.8 75.0----
2024-04-18 09:36 pmSSE 13.0 15.0----29.95- 74.8 75.4----
2024-04-18 09:30 pmSSE 12.0 15.9----29.94- 74.8 75.7----
2024-04-18 09:24 pmSSE 14.0 17.1----29.93- 74.7 75.6----
2024-04-18 09:18 pm SE 13.0 15.9----29.93- 74.8 75.4----
2024-04-18 09:12 pm SE 14.0 15.9----29.92- 74.7 75.6----
2024-04-18 09:06 pm SE 13.0 14.0----29.92- 74.7 75.2----
2024-04-18 09:00 pm SE 12.0 13.0----29.92+0.03 74.5 75.9----
2024-04-18 08:54 pm SE 13.0 15.9----29.92- 74.5 76.1----
2024-04-18 08:48 pm SE 12.0 15.9----29.92- 74.5 76.1----
2024-04-18 08:42 pm SE 9.9 11.1----29.92- 74.5 76.1----
2024-04-18 08:36 pm SE 8.9 11.1----29.92- 74.5 76.1----
2024-04-18 08:30 pm SE 9.9 11.1----29.92- 74.5 76.3----
2024-04-18 08:24 pm SE 8.9 11.1----29.91- 74.5 76.5----
2024-04-18 08:18 pm SE 9.9 12.0----29.91- 74.5 76.3----
2024-04-18 08:12 pm SE 11.1 13.0----29.90- 74.5 76.1----
2024-04-18 08:06 pm SE 11.1 13.0----29.90- 74.3 76.3----
2024-04-18 08:00 pm SE 11.1 12.0----29.90+0.01 74.5 76.5----
2024-04-18 07:54 pm SE 9.9 12.0----29.90- 74.5 76.5----
2024-04-18 07:48 pm SE 11.1 13.0----29.90- 74.5 76.6----
2024-04-18 07:42 pm SE 9.9 12.0----29.90- 74.5 76.8----
2024-04-18 07:36 pm SE 11.1 13.0----29.90- 74.5 76.6----
2024-04-18 07:30 pm SE 12.0 14.0----29.90- 74.5 76.6----
2024-04-18 07:24 pm SE 12.0 13.0----29.89- 74.3 76.6----
2024-04-18 07:18 pm SE 9.9 13.0----29.90- 74.5 76.6----
2024-04-18 07:12 pm SE 12.0 14.0----29.89- 74.3 76.6----
2024-04-18 07:06 pm SE 8.9 11.1----29.89- 74.5 76.8----
2024-04-18 07:00 pm SE 8.9 12.0----29.89-0.03 74.5 76.8----
2024-04-18 06:54 pm SE 9.9 12.0----29.88- 74.7 76.6----
2024-04-18 06:48 pmESE 8.0 11.1----29.88- 74.7 76.6----
2024-04-18 06:42 pmESE 9.9 13.0----29.88- 74.7 76.6----
2024-04-18 06:36 pmESE 11.1 15.0----29.88- 74.8 76.6----
2024-04-18 06:30 pmESE 13.0 17.1----29.87- 74.7 76.6----
2024-04-18 06:24 pm SE 14.0 19.0----29.88- 74.7 76.6----
2024-04-18 06:18 pm SE 17.1 19.0----29.86- 74.5 76.6----
2024-04-18 06:00 pm SE 11.1 15.0----29.88-0.02 74.5 76.6----
2024-04-18 05:54 pm SE 12.0 17.1----29.89- 74.5 76.6----
2024-04-18 05:48 pm SE 13.0 15.0----29.88- 74.3 76.5----
2024-04-18 05:42 pm SE 13.0 14.0----29.89- 74.3 76.5----
2024-04-18 05:36 pm SE 12.0 15.9----29.89- 74.3 76.5----
2024-04-18 05:30 pm SE 14.0 17.1----29.89- 74.3 76.5----
2024-04-18 05:24 pm SE 15.0 18.1----29.88- 74.3 76.6----
2024-04-18 05:18 pmSSE 15.9 20.0----29.88- 74.3 76.5----
2024-04-18 05:12 pmSSE 20.0 22.0----29.87- 74.3 76.5----
2024-04-18 05:06 pm SE 19.0 21.0----29.86- 74.3 76.3----
2024-04-18 05:00 pm SE 15.0 17.1----29.88-0.05- 76.3----
2024-04-18 04:54 pm SE 14.0 15.9----29.88-- 76.3----
2024-04-18 04:48 pm SE 8.0 8.9----29.91- 74.3 75.9----
2024-04-18 04:42 pmESE 4.1 5.1----29.92- 74.3 75.6----
2024-04-18 04:36 pm E 2.9 4.1----29.92- 74.5 75.6----
2024-04-18 04:30 pmESE 5.1 6.0----29.92- 74.5 76.3----
2024-04-18 04:24 pmESE 2.9 7.0----29.92- 74.5 76.6----
2024-04-18 04:18 pmESE 6.0 13.0----29.91- 74.3 75.9----
2024-04-18 04:12 pmESE 13.0 14.0----29.89- 74.3 75.2----
2024-04-18 04:06 pmESE 9.9 12.0----29.90- 74.3 75.4----
2024-04-18 04:00 pm SE 7.0 11.1----29.92-0.02 74.5 76.5----
2024-04-18 03:54 pmESE 9.9 11.1----29.91- 74.5 76.8----
2024-04-18 03:48 pm SE 8.9 11.1----29.91- 74.5 76.8----
2024-04-18 03:42 pm SE 9.9 11.1----29.91- 74.5 76.6----
2024-04-18 03:36 pm SE 8.9 13.0----29.91- 74.8 76.1----
2024-04-18 03:30 pm SE 11.1 14.0----29.91- 74.7 76.1----
2024-04-18 03:24 pm SE 13.0 15.0----29.91- 74.7 75.9----
2024-04-18 03:18 pm SE 14.0 15.9----29.91- 74.7 75.7----
2024-04-18 03:12 pm SE 15.0 15.9----29.90- 74.7 76.1----
2024-04-18 03:06 pm SE 14.0 15.9----29.91- 74.7 76.3----
2024-04-18 03:00 pm SE 14.0 15.0----29.91-0.04 74.7 76.6----
2024-04-18 02:54 pm SE 13.0 15.0----29.91- 74.8 75.7----
2024-04-18 02:48 pm SE 13.0 14.0----29.92- 74.8 76.1----
2024-04-18 02:42 pm SE 13.0 14.0----29.92- 74.8 76.5----
2024-04-18 02:36 pm SE 11.1 13.0----29.93- 75.0 76.3----
2024-04-18 02:30 pm SE 12.0 14.0----29.93- 74.8 76.5----
2024-04-18 02:24 pm SE 12.0 14.0----29.93- 75.0 76.1----
2024-04-18 02:18 pm SE 13.0 14.0----29.93- 74.8 75.7----
2024-04-18 02:12 pm SE 12.0 14.0----29.93- 74.8 75.6----
2024-04-18 02:06 pm SE 12.0 15.0----29.93- 75.0 75.2----
2024-04-18 02:00 pm SE 12.0 14.0----29.93-0.04 74.8 75.0----
2024-04-18 01:54 pmESE 12.0 14.0----29.93- 75.2 75.2----
2024-04-18 01:48 pmESE 12.0 14.0----29.93- 75.2 75.6----
2024-04-18 01:42 pmESE 12.0 13.0----29.93- 75.2 75.2----
2024-04-18 01:36 pmESE 12.0 13.0----29.93- 75.2 75.2----
2024-04-18 01:30 pmESE 11.1 13.0----29.94- 75.2 75.6----
2024-04-18 01:24 pm SE 12.0 13.0----29.94- 75.2 76.1----
2024-04-18 01:18 pm SE 12.0 15.0----29.94- 75.2 76.1----
2024-04-18 01:12 pm SE 13.0 15.0----29.94- 75.0 75.9----
2024-04-18 01:06 pm SE 13.0 15.9----29.94- 75.2 75.9----
2024-04-18 01:00 pm SE 14.0 15.0----29.94-0.01 75.0 74.8----
2024-04-18 12:54 pm SE 14.0 15.9----29.94- 75.0 74.7----
2024-04-18 12:48 pm SE 14.0 17.1----29.94- 75.2 74.7----
2024-04-18 12:42 pm SE 15.9 18.1----29.94- 75.2 75.6----
2024-04-18 12:36 pm SE 17.1 19.0----29.94- 75.2 75.6----
2024-04-18 12:30 pm SE 15.9 19.0----29.94- 75.4 74.8----
2024-04-18 12:24 pm SE 14.0 17.1----29.94- 75.4 75.0----
2024-04-18 12:18 pm SE 13.0 15.9----29.94- 75.4 74.8----
2024-04-18 12:12 pm SE 12.0 14.0----29.94- 75.6 74.8----
2024-04-18 12:06 pm SE 12.0 14.0----29.94- 75.4 74.8----
2024-04-18 12:00 pm SE 9.9 11.1----29.94+0.01 75.4 75.2----
2024-04-18 11:54 am SE 8.9 9.9----29.95- 75.0 75.0----
2024-04-18 11:48 am SE 8.0 8.9----29.95- 74.8 75.2----
2024-04-18 11:42 am SE 8.9 9.9----29.95- 75.0 75.2----
2024-04-18 11:36 am SE 7.0 9.9----29.96- 75.0 75.0----
2024-04-18 11:30 am SE 8.0 9.9----29.96- 74.7 75.0----
2024-04-18 11:24 am SE 8.0 8.9----29.96- 75.0 75.4----
2024-04-18 11:18 am SE 7.0 8.9----29.96- 74.8 75.2----
2024-04-18 11:12 amESE 7.0 8.9----29.96- 74.8 74.8----
2024-04-18 11:06 amESE 7.0 8.0----29.96- 74.7 75.0----
2024-04-18 11:00 am SE 5.1 8.0----29.97+0.04 74.8 74.8----
2024-04-18 10:54 am SE 7.0 8.0----29.97- 74.8 74.8----
2024-04-18 10:48 am SE 7.0 8.9----29.97- 74.7 74.7----
2024-04-18 10:42 am SE 8.0 8.9----29.96- 74.8 74.5----
2024-04-18 10:36 am SE 8.0 8.9----29.97- 74.3 74.5----
2024-04-18 10:30 amESE 7.0 8.9----29.97- 74.5 74.7----
2024-04-18 10:24 amESE 8.9 9.9----29.96- 74.1 74.7----
2024-04-18 10:18 amESE 8.0 9.9----29.96- 73.9 74.5----
2024-04-18 10:12 amESE 8.9 11.1----29.96- 73.9 74.7----
2024-04-18 10:06 amESE 8.9 11.1----29.96- 74.3 74.7----
2024-04-18 10:00 amESE 8.9 11.1----29.96+0.05 74.3 74.7----
2024-04-18 09:54 amESE 8.0 8.9----29.96- 74.3 74.7----
2024-04-18 09:48 amESE 8.0 8.9------------
2024-04-18 09:42 amESE 7.0 8.9------------
2024-04-18 09:36 amESE 8.9 11.1------------
2024-04-18 09:30 amESE 11.1 12.0----29.94- 73.8 74.5----
2024-04-18 09:24 amESE 11.1 12.0----29.94- 73.8 74.5----
2024-04-18 09:18 amESE 8.9 9.9----29.95- 73.8 74.5----
2024-04-18 09:12 amESE 8.9 12.0----29.94- 73.8 74.5----
2024-04-18 09:06 amESE 11.1 12.0----29.93- 73.6 74.5----
2024-04-18 09:00 amESE 11.1 13.0----29.93+0.03 73.6 74.5----
2024-04-18 08:54 amESE 12.0 13.0----29.93- 73.4 74.5----
2024-04-18 08:48 amESE 12.0 13.0----29.93- 73.4 74.5----
2024-04-18 08:42 amESE 12.0 13.0----29.93- 73.4 74.5----
2024-04-18 08:36 amESE 9.9 11.1----29.93- 73.4 74.3----
2024-04-18 08:30 am E 8.0 8.9----29.94- 73.6 74.3----
2024-04-18 08:24 am E 8.0 11.1----29.93- 73.6 74.5----
2024-04-18 08:18 amESE 9.9 13.0----29.93- 73.6 74.5----
2024-04-18 08:12 amESE 12.0 13.0----29.93- 73.6 74.5----
2024-04-18 08:06 am E 8.9 11.1----29.93- 73.6 74.1----
2024-04-18 08:00 am E 8.0 8.9----29.93+0.04 73.6 74.1----
2024-04-18 07:54 amESE 8.9 9.9----29.93- 73.6 74.1----
2024-04-18 07:48 amESE 8.9 9.9----29.92- 73.6 74.1----
2024-04-18 07:42 am E 8.9 9.9----29.92- 73.6 74.1----
2024-04-18 07:36 am E 7.0 8.0----29.92- 73.6 74.1----
2024-04-18 07:30 am E 6.0 7.0----29.93- 73.6 74.1----
2024-04-18 07:24 amESE 6.0 8.9----29.93- 73.6 74.1----
2024-04-18 07:18 am E 8.0 9.9----29.91- 73.6 73.9----
2024-04-18 07:12 am E 8.0 8.9----29.91- 73.6 74.1----
2024-04-18 07:06 am E 7.0 8.0----29.91- 73.6 73.9----
2024-04-18 07:00 am E 7.0 8.0----29.91+0.01 73.6 73.9----
2024-04-18 06:54 amESE 7.0 7.0----29.91- 73.6 73.9----
2024-04-18 06:48 amESE 6.0 8.0----29.91- 73.6 73.9----
2024-04-18 06:42 amESE 6.0 7.0----29.91- 73.6 73.9----
2024-04-18 06:36 amESE 6.0 8.0----29.91- 73.6 74.1----
2024-04-18 06:30 amESE 8.0 8.0----29.91- 73.6 74.1----
2024-04-18 06:24 amESE 7.0 8.0----29.91- 73.6 74.1----
2024-04-18 06:18 amESE 7.0 8.0----29.91- 73.6 74.1----
2024-04-18 06:12 amESE 7.0 8.0----29.91- 73.6 74.1----
2024-04-18 06:06 amESE 8.0 8.9----29.90- 73.6 74.1----
2024-04-18 06:00 amESE 8.0 8.0----29.90+0.00 73.6 74.1----
2024-04-18 05:54 amESE 7.0 8.9----29.90- 73.8 74.1----
2024-04-18 05:48 amESE 8.0 8.9----29.90- 73.8 74.1----
2024-04-18 05:42 amESE 8.0 8.9----29.89- 73.8 74.1----
2024-04-18 05:36 amESE 8.0 8.9----29.89- 73.8 73.9----
2024-04-18 05:30 amESE 8.0 8.9----29.89- 73.6 74.1----
2024-04-18 05:24 amESE 7.0 8.9----29.90- 73.8 74.1----
2024-04-18 05:18 amESE 7.0 8.0----29.90- 73.8 74.1----
2024-04-18 05:12 amESE 8.0 8.0----29.90- 73.8 74.3----
2024-04-18 05:06 amESE 6.0 8.0----29.89- 73.8 74.1----
2024-04-18 05:00 amESE 7.0 8.9----29.89+0.00 73.8 74.1----
2024-04-18 04:54 amESE 8.0 8.9----29.89- 73.8 73.9----
2024-04-18 04:48 amESE 8.0 8.0----29.89- 73.8 74.1----
2024-04-18 04:42 amESE 7.0 7.0----29.89- 73.8 73.9----
2024-04-18 04:36 amESE 6.0 7.0----29.90- 73.8 73.9----
2024-04-18 04:30 am SE 6.0 8.0----29.90- 73.8 74.1----
2024-04-18 04:24 am SE 7.0 8.0----29.90- 73.8 74.1----
2024-04-18 04:18 am SE 8.0 8.0----29.89- 73.8 73.9----
2024-04-18 04:12 am SE 7.0 8.0----29.90- 73.8 73.9----
2024-04-18 04:06 am SE 6.0 8.0----29.90- 73.8 73.9----
2024-04-18 04:00 am SE 7.0 8.0----29.89-0.01 73.8 73.9----
2024-04-18 03:54 am SE 8.0 8.0----29.89- 73.9 74.1----
2024-04-18 03:48 am SE 7.0 8.9----29.89- 73.9 74.1----
2024-04-18 03:42 amSSE 6.0 8.0----29.90- 73.9 74.1----
2024-04-18 03:36 amSSE 7.0 8.0----29.90- 73.9 74.1----
2024-04-18 03:30 am SE 7.0 8.9----29.90- 74.1 74.3----
2024-04-18 03:24 am SE 7.0 8.0----29.90- 74.1 74.3----
2024-04-18 03:18 am SE 5.1 7.0----29.90- 74.1 74.1----
2024-04-18 03:12 am SE 6.0 8.0----29.90- 74.1 74.3----
2024-04-18 03:06 am SE 7.0 8.9----29.90- 74.1 74.3----
2024-04-18 03:00 am SE 8.0 8.9----29.90-0.03 74.1 74.3----
2024-04-18 02:54 am SE 8.0 8.9----29.90- 74.1 74.3----
2024-04-18 02:48 am SE 6.0 8.0----29.91- 74.1 74.3----
2024-04-18 02:42 am SE 7.0 8.0----29.91- 74.3 74.3----
2024-04-18 02:36 am SE 8.0 8.9----29.90- 74.3 74.3----
2024-04-18 02:30 am SE 8.0 8.9----29.91- 74.3 74.3----
2024-04-18 02:24 am SE 8.0 9.9----29.90- 74.3 74.1----
2024-04-18 02:18 amESE 8.0 11.1----29.89- 74.1 74.1----
2024-04-18 02:12 am E 8.9 9.9----29.88- 74.1 74.1----
2024-04-18 02:06 am E 7.0 8.9----29.89- 74.1 74.1----
2024-04-18 02:00 am E 8.0 9.9----29.89-0.03 74.1 74.1----
2024-04-18 01:54 am E 8.0 8.9----29.89- 74.1 74.1----
2024-04-18 01:48 am E 5.1 8.0----29.91- 74.1 74.1----
2024-04-18 01:42 am E 5.1 7.0----29.91- 74.1 74.1----
2024-04-18 01:36 amESE 7.0 8.0----29.91- 74.1 74.1----
2024-04-18 01:30 amESE 5.1 8.9----29.91- 74.1 74.1----
2024-04-18 01:24 am E 9.9 15.9----29.90- 74.1 74.1----
2024-04-18 01:18 am E 14.0 15.0----29.88- 74.3 74.1----
2024-04-18 01:12 amESE 12.0 15.0----29.89- 74.3 74.1----
2024-04-18 01:06 am E 12.0 13.0----29.90- 74.1 74.1----
2024-04-18 01:00 amESE 11.1 12.0----29.91-0.04 74.1 74.1----
2024-04-18 12:54 am E 9.9 11.1----29.91- 74.1 74.1----
2024-04-18 12:48 am E 8.0 8.9----29.92- 74.1 74.1----
2024-04-18 12:42 am E 6.0 7.0----29.93- 74.1 73.9----
2024-04-18 12:36 am E 4.1 8.0----29.94- 74.1 74.1----
2024-04-18 12:30 am E 8.0 9.9----29.92- 74.1 73.9----
2024-04-18 12:24 am E 8.9 9.9----29.92- 74.1 73.9----
2024-04-18 12:18 am E 7.0 11.1----29.93- 74.1 73.9----
2024-04-18 12:12 amESE 11.1 12.0----29.92- 74.1 73.9----
2024-04-18 12:06 amESE 9.9 12.0----29.92- 74.1 73.9----
2024-04-18 12:00 amESE 12.0 15.0----29.93+0.02 74.3 73.9----
2024-04-17 11:54 pmESE 12.0 15.0----29.93- 74.3 73.9----
2024-04-17 11:48 pmESE 9.9 12.0----29.93- 73.9 73.9----
2024-04-17 11:42 pmESE 8.9 9.9----29.93- 73.9 73.9----
2024-04-17 11:36 pmESE 7.0 8.0----29.94- 73.9 73.9----
2024-04-17 11:30 pm SE 6.0 8.9----29.95- 73.8 73.8----
2024-04-17 11:24 pmESE 8.0 11.1----29.94- 73.8 73.9----
2024-04-17 11:18 pmESE 9.9 13.0----29.94- 73.8 73.9----
2024-04-17 11:12 pmESE 11.1 13.0----29.93- 73.6 73.9----
2024-04-17 11:06 pmESE 13.0 17.1----29.93- 73.6 73.9----
2024-04-17 11:00 pmESE 15.0 18.1----29.92+0.03 73.6 73.9----
2024-04-17 10:54 pmESE 15.0 18.1----29.92- 73.6 73.8----
2024-04-17 10:48 pmESE 9.9 12.0----29.93- 73.6 73.8----
2024-04-17 10:42 pm E 9.9 11.1----29.93- 73.4 73.9----
2024-04-17 10:36 pmESE 8.9 11.1----29.94- 73.4 73.8----
2024-04-17 10:30 pmESE 11.1 12.0----29.94- 73.6 73.9----
2024-04-17 10:24 pmESE 9.9 11.1----29.94- 73.6 74.1----
2024-04-17 10:18 pmESE 8.0 8.9----29.96- 73.8 73.9----
2024-04-17 10:12 pmESE 7.0 8.0----29.96- 73.6 73.9----
2024-04-17 10:06 pmESE 8.0 9.9----29.95- 73.6 73.8----
2024-04-17 10:00 pm E 8.0 9.9----29.94+0.05 73.6 74.1----
2024-04-17 09:54 pm E 8.9 12.0----29.94- 73.8 74.1----